Tracking 30922 objects as of 2-Jul-2025
HD Live streaming from Space Station
objects crossing your sky now

STARLINK-4437

Track STARLINK-4437 now!
10-day predictions
STARLINK-4437 is classified as:


NORAD ID: 53506
Int'l Code: 2022-099AT
Perigee: 568.8 km
Apogee: 571.5 km
Inclination: 97.7 °
Period: 95.9 minutes
Semi major axis: 6941 km
RCS: Unknown
Launch date: August 12, 2022
Source: United States (US)
Launch site: AIR FORCE WESTERN TEST RANGE (AFWTR)
Your satellite tracking list
FENGYUN 1C DEB
Track 1 satellite(s)




NASA's NSSDC Master Catalog

Two Line Element Set (TLE):
1 53506U 22099AT  25182.85926108 -.00000215  00000-0 -12130-4 0  9999
2 53506  97.6550 304.2618 0001991  91.4502 268.6951 15.01254951158350
Source of the keplerian elements: AFSPC